EW8830 Weather Reports


time (UTC)temp
F
wind
direction
speed
knots
gust
knots
rain 1hr
in
rain 24hr
in
rain mn
in
humidity
%
barometer
mb
20260504014504 54 0 0.0 0.0 0.00 0.00 0.00 47 1012.3
20260504014004 54 0 0.0 0.0 0.00 0.00 0.00 47 1012.3
20260504013504 54 0 0.0 0.0 0.00 0.00 0.00 46 1012.3
20260504013004 54 0 0.0 0.0 0.00 0.00 0.00 46 1012.4
20260504012503 55 0 0.0 0.0 0.00 0.00 0.00 45 1012.3
20260504012003 55 262 0.0 0.9 0.00 0.00 0.00 45 1012.2
20260504011503 55 262 0.0 0.9 0.00 0.00 0.00 45 1012.2
20260504011003 55 0 0.0 0.0 0.00 0.00 0.00 44 1012.3
20260504010504 55 0 0.0 0.0 0.00 0.00 0.00 44 1012.3
20260504010004 56 246 0.0 0.9 0.00 0.00 0.00 44 1012.2
20260504005504 56 246 0.0 0.9 0.00 0.00 0.00 44 1012.2
20260504005003 56 0 0.0 0.0 0.00 0.00 0.00 43 1012.3
20260504004503 56 0 0.0 0.0 0.00 0.00 0.00 43 1012.2
20260504003503 56 0 0.0 0.0 0.00 0.00 0.00 42 1012.2
20260504003004 57 0 0.0 0.0 0.00 0.00 0.00 42 1012.3
20260504002504 57 266 0.0 0.9 0.00 0.00 0.00 42 1012.2
20260504001504 57 262 0.0 2.6 0.00 0.00 0.00 42 1012.1
20260504001003 57 274 0.0 2.6 0.00 0.00 0.00 41 1012.2
20260504000003 58 262 0.0 7.0 0.00 0.00 0.00 41 1012.1
20260503235003 58 273 0.0 7.0 0.00 0.00 0.00 40 1012.4
20260503234504 58 270 0.0 7.0 0.00 0.00 0.00 40 1012.3
20260503234004 58 252 0.0 3.5 0.00 0.00 0.00 40 1012.4
20260503233503 58 268 0.0 4.3 0.00 0.00 0.00 40 1012.2
20260503233003 58 270 0.0 4.3 0.00 0.00 0.00 40 1012.2
20260503232503 58 277 0.0 5.2 0.00 0.00 0.00 39 1012.2
20260503232004 58 276 0.0 5.2 0.00 0.00 0.00 39 1012.2
20260503231504 58 249 0.0 2.6 0.00 0.00 0.00 39 1012.2
20260503231003 58 249 0.0 2.6 0.00 0.00 0.00 38 1012.3
20260503230503 58 258 0.0 4.3 0.00 0.00 0.00 38 1012.4
20260503230003 59 240 0.0 4.3 0.00 0.00 0.00 38 1012.4
20260503225003 59 265 0.0 12.2 0.00 0.00 0.00 38 1012.4
20260503224504 59 265 0.0 12.2 0.00 0.00 0.00 38 1012.5
20260503224004 59 293 0.0 0.9 0.00 0.00 0.00 38 1012.4
20260503223504 59 284 0.0 0.9 0.00 0.00 0.00 37 1012.4
20260503223003 59 254 0.0 4.3 0.00 0.00 0.00 38 1012.4
20260503222503 59 237 0.0 4.3 0.00 0.00 0.00 38 1012.4
20260503221503 59 109 0.0 0.9 0.00 0.00 0.00 38 1012.5
20260503220504 59 241 0.0 6.1 0.00 0.00 0.00 37 1012.5
20260503220004 59 294 0.0 5.2 0.00 0.00 0.00 37 1012.5
20260503215504 59 262 0.0 0.9 0.00 0.00 0.00 36 1012.4
20260503214503 60 178 0.9 13.9 0.00 0.00 0.00 37 1012.4
20260503214004 60 143 0.0 13.9 0.00 0.00 0.00 36 1012.5
20260503213504 60 263 0.0 8.7 0.00 0.00 0.00 36 1012.4
20260503212504 59 275 0.9 10.4 0.00 0.00 0.00 35 1012.1
20260503211504 59 254 0.0 10.4 0.00 0.00 0.00 35 1012.3
20260503211004 59 229 0.0 10.4 0.00 0.00 0.00 34 1012.2
20260503210003 60 170 0.0 0.9 0.00 0.00 0.00 34 1012.3
20260503205004 60 265 0.0 1.7 0.00 0.00 0.00 34 1012.3
20260503204503 60 227 0.0 0.9 0.00 0.00 0.00 33 1012.3
20260503203004 60 267 0.0 7.8 0.00 0.00 0.00 33 1012.4
20260503202503 60 270 0.0 10.4 0.00 0.00 0.00 35 1012.5
20260503202003 60 272 0.0 10.4 0.00 0.00 0.00 34 1012.6
20260503201503 60 282 0.0 3.5 0.00 0.00 0.00 33 1012.6
20260503201004 60 295 0.0 10.4 0.00 0.00 0.00 35 1012.7
20260503200503 60 292 0.0 10.4 0.00 0.00 0.00 34 1012.8
20260503195504 60 275 0.0 2.6 0.00 0.00 0.00 34 1012.8
20260503195004 60 268 0.0 1.7 0.00 0.00 0.00 35 1013.0
20260503194503 59 234 0.0 1.7 0.00 0.00 0.00 35 1013.1
20260503194003 60 264 0.0 3.5 0.00 0.00 0.00 36 1013.2
20260503193503 60 270 0.0 3.5 0.00 0.00 0.00 36 1013.3
20260503193004 59 0 0.0 0.0 0.00 0.00 0.00 35 1013.2
20260503192503 59 271 0.0 9.6 0.00 0.00 0.00 35 1013.4
20260503192004 59 271 0.9 11.3 0.00 0.00 0.00 38 1013.5
20260503191503 58 270 0.9 17.4 0.00 0.00 0.00 36 1013.6
20260503191004 59 270 1.7 17.4 0.00 0.00 0.00 37 1013.8
20260503190504 58 265 1.7 14.8 0.00 0.00 0.00 37 1013.9
20260503190003 58 261 0.9 13.0 0.00 0.00 0.00 36 1013.8
20260503185504 58 264 0.0 11.3 0.00 0.00 0.00 36 1013.9
20260503185004 58 274 0.0 14.8 0.00 0.00 0.00 37 1013.9
20260503184503 58 271 0.0 14.8 0.00 0.00 0.00 36 1014.1
20260503184003 58 214 0.0 1.7 0.00 0.00 0.00 37 1014.0
20260503183503 58 256 0.0 7.0 0.00 0.00 0.00 38 1014.1
20260503182503 58 238 0.0 7.8 0.00 0.00 0.00 40 1014.2
20260503182005 58 210 0.0 2.6 0.00 0.00 0.00 40 1014.2
20260503181504 58 245 0.0 5.2 0.00 0.00 0.00 40 1014.3
20260503181004 57 272 0.9 15.6 0.00 0.00 0.00 40 1014.4
20260503180503 57 269 1.7 16.5 0.00 0.00 0.00 39 1014.3
20260503180004 57 261 0.9 16.5 0.00 0.00 0.00 39 1014.3
20260503175504 57 232 0.0 4.3 0.00 0.00 0.00 40 1014.5
20260503175003 57 278 0.0 8.7 0.00 0.00 0.00 39 1014.6
20260503174504 57 283 0.0 8.7 0.00 0.00 0.00 39 1014.7
20260503174004 57 242 0.0 3.5 0.00 0.00 0.00 40 1014.6
20260503173504 56 243 0.0 3.5 0.00 0.00 0.00 40 1014.8
20260503173003 56 252 0.0 0.9 0.00 0.00 0.00 41 1014.9
20260503172504 56 279 0.0 7.8 0.00 0.00 0.00 40 1014.9
20260503172003 55 280 0.0 7.8 0.00 0.00 0.00 41 1014.9
20260503171503 55 271 0.0 7.0 0.00 0.00 0.00 41 1014.9
20260503171003 55 272 0.0 13.0 0.00 0.00 0.00 41 1015.0
20260503131004 45 0 0.0 0.0 0.00 0.01 0.00 59 1016.9
20260503130504 45 266 0.0 0.9 0.00 0.01 0.00 60 1016.8
20260503110503 33 0 0.0 0.0 0.00 0.07 0.00 90 1016.0
20260503081504 34 0 0.0 0.0 0.00 0.11 0.00 89 1015.6
20260503081004 34 0 0.0 0.0 0.00 0.11 0.00 89 1015.5
20260503080504 34 0 0.0 0.0 0.00 0.11 0.00 89 1015.6
20260503072504 34 0 0.0 0.0 0.00 0.11 0.00 87 1015.6
20260503072004 34 0 0.0 0.0 0.00 0.11 0.00 86 1015.6
20260503071503 34 0 0.0 0.0 0.00 0.11 0.00 85 1015.5
20260503071003 35 0 0.0 0.0 0.00 0.11 0.00 85 1015.5
20260503055004 39 0 0.0 0.0 0.00 0.11 0.00 74 1016.0
20260503054504 39 0 0.0 0.0 0.00 0.11 0.00 74 1016.0
20260503053504 39 0 0.0 0.0 0.00 0.11 0.00 73 1015.8
20260503053004 39 0 0.0 0.0 0.00 0.11 0.00 72 1016.0
20260503052504 39 0 0.0 0.0 0.00 0.11 0.00 72 1015.9
20260503052004 39 0 0.0 0.0 0.00 0.11 0.00 72 1015.8
20260503051504 39 0 0.0 0.0 0.00 0.11 0.00 72 1015.9
20260503050503 39 0 0.0 0.0 0.00 0.11 0.00 72 1015.9
20260503045503 40 0 0.0 0.0 0.00 0.11 0.00 71 1016.1
20260503045003 40 0 0.0 0.0 0.00 0.11 0.00 71 1016.1
20260503044504 40 0 0.0 0.0 0.00 0.11 0.00 71 1016.1
20260503044004 40 0 0.0 0.0 0.00 0.11 0.00 71 1016.1
20260503043504 40 0 0.0 0.0 0.00 0.11 0.00 71 1016.2
20260503043003 40 0 0.0 0.0 0.00 0.11 0.00 71 1016.1
20260503042503 40 0 0.0 0.0 0.00 0.11 0.00 71 1016.0
20260503042003 40 0 0.0 0.0 0.00 0.11 0.00 71 1016.0
20260503041503 40 0 0.0 0.0 0.00 0.11 0.00 70 1016.2
20260503041003 40 0 0.0 0.0 0.00 0.11 0.00 70 1016.2
20260503040503 40 0 0.0 0.0 0.00 0.11 0.00 70 1016.2
20260503040005 40 0 0.0 0.0 0.00 0.11 0.00 71 1016.4
20260503035503 40 0 0.0 0.0 0.00 0.11 0.11 71 1016.4
20260503035003 40 0 0.0 0.0 0.00 0.11 0.11 71 1016.4
20260503034503 40 0 0.0 0.0 0.00 0.11 0.11 71 1016.4
20260503034003 40 0 0.0 0.0 0.00 0.11 0.11 71 1016.3
20260503033503 40 0 0.0 0.0 0.00 0.11 0.11 71 1016.4
20260503033004 40 0 0.0 0.0 0.00 0.11 0.11 71 1016.4
20260503032504 40 0 0.0 0.0 0.00 0.11 0.11 70 1016.4
20260503032004 40 0 0.0 0.0 0.00 0.11 0.11 70 1016.4
20260503031504 40 0 0.0 0.0 0.00 0.11 0.11 70 1016.4
20260503031003 40 0 0.0 0.0 0.00 0.11 0.11 70 1016.4
20260503030503 40 0 0.0 0.0 0.00 0.11 0.11 71 1016.4
20260503030003 40 0 0.0 0.0 0.00 0.11 0.11 71 1016.4
20260503025503 40 0 0.0 0.0 0.00 0.11 0.11 71 1016.3
20260503025003 40 0 0.0 0.0 0.00 0.11 0.11 71 1016.5
20260503024503 40 0 0.0 0.0 0.00 0.11 0.11 71 1016.5
20260503024003 40 0 0.0 0.0 0.00 0.11 0.11 70 1016.6
20260503023504 40 0 0.0 0.0 0.00 0.11 0.11 69 1016.6
20260503022504 41 0 0.0 0.0 0.00 0.11 0.11 67 1016.8
20260503022003 41 0 0.0 0.0 0.00 0.11 0.11 67 1016.7
20260503021503 41 0 0.0 0.0 0.00 0.11 0.11 66 1016.6
20260503021003 41 0 0.0 0.0 0.00 0.11 0.11 66 1016.7
20260503020503 41 0 0.0 0.0 0.00 0.11 0.11 66 1016.7
20260503020003 41 0 0.0 0.0 0.00 0.11 0.11 65 1016.7
20260503015503 41 0 0.0 0.0 0.00 0.11 0.11 65 1016.6
20260503015004 41 0 0.0 0.0 0.00 0.11 0.11 64 1016.6